• In Belarus
  • List of Countries
  • For 7 days
  • Water Temperature
  • Satellite Maps
  • Weather Map
  • Weather Widgets
  • user-avatar
    Login

    Hourly Weather Herāt

    Today, 26 March, Tuesday

    Time Temperature Precipitation Wind Pressure Humidity
    00:00 +18°C° 0 mm 4 mps 679 mmHg 35%
    01:00 +18°C° 0 mm 4 mps 679 mmHg 35%
    02:00 +18°C° 0 mm 4 mps 679 mmHg 34%
    03:00 +17°C° 0 mm 5 mps 679 mmHg 34%
    04:00 +17°C° 0 mm 5 mps 678 mmHg 34%
    05:00 +18°C° 0.2 mm 4 mps 678 mmHg 37%
    06:00 +18°C° 0.2 mm 4 mps 678 mmHg 40%
    07:00 +18°C° 0.2 mm 4 mps 678 mmHg 43%
    08:00 +19°C° 0.1 mm 4 mps 679 mmHg 41%
    09:00 +21°C° 0.1 mm 5 mps 679 mmHg 39%
    10:00 +22°C° 0.1 mm 5 mps 679 mmHg 37%
    11:00 +22°C° 0 mm 6 mps 679 mmHg 37%
    12:00 +23°C° 0 mm 6 mps 679 mmHg 38%
    13:00 +23°C° 0 mm 6 mps 679 mmHg 39%
    14:00 +22°C° 0 mm 7 mps 679 mmHg 42%
    15:00 +22°C° 0 mm 8 mps 679 mmHg 45%
    16:00 +21°C° 0 mm 9 mps 678 mmHg 48%
    17:00 +21°C° 0 mm 8 mps 678 mmHg 48%
    18:00 +20°C° 0 mm 6 mps 678 mmHg 49%
    19:00 +20°C° 0 mm 5 mps 678 mmHg 49%
    20:00 +20°C° 0 mm 6 mps 678 mmHg 49%
    21:00 +20°C° 0 mm 6 mps 679 mmHg 48%
    22:00 +20°C° 0 mm 6 mps 679 mmHg 48%
    23:00 +20°C° 0.4 mm 6 mps 678 mmHg 53%

    Tomorrow, 27 March, Wednesday

    Time Temperature Precipitation Wind Pressure Humidity
    00:00 +19°C° 0.4 mm 5 mps 678 mmHg 58%
    01:00 +19°C° 0.4 mm 5 mps 678 mmHg 63%
    02:00 +17°C° 0.3 mm 5 mps 677 mmHg 63%
    03:00 +17°C° 0.3 mm 5 mps 677 mmHg 62%
    04:00 +17°C° 0.3 mm 5 mps 677 mmHg 61%
    05:00 +19°C° 0.1 mm 6 mps 677 mmHg 60%
    06:00 +19°C° 0.1 mm 6 mps 677 mmHg 58%
    07:00 +20°C° 0.1 mm 6 mps 678 mmHg 56%
    08:00 +21°C° 0 mm 8 mps 678 mmHg 49%
    09:00 +23°C° 0 mm 10 mps 678 mmHg 42%
    10:00 +26°C° 0 mm 12 mps 679 mmHg 35%
    11:00 +26°C° 0 mm 12 mps 679 mmHg 36%
    12:00 +26°C° 0 mm 11 mps 678 mmHg 36%
    13:00 +26°C° 0 mm 11 mps 678 mmHg 36%
    14:00 +27°C° 0 mm 10 mps 678 mmHg 34%
    15:00 +27°C° 0 mm 10 mps 677 mmHg 32%
    16:00 +27°C° 0 mm 9 mps 677 mmHg 31%
    17:00 +24°C° 1.4 mm 7 mps 677 mmHg 40%
    18:00 +23°C° 1.4 mm 5 mps 677 mmHg 50%
    19:00 +21°C° 1.4 mm 3 mps 677 mmHg 59%
    20:00 +20°C° 0 mm 3 mps 678 mmHg 58%
    21:00 +20°C° 0 mm 2 mps 678 mmHg 57%
    22:00 +20°C° 0 mm 2 mps 679 mmHg 55%
    23:00 +19°C° 0 mm 2 mps 679 mmHg 60%

    Day after tomorrow, 28 March, Thursday

    Time Temperature Precipitation Wind Pressure Humidity
    00:00 +18°C° 0 mm 2 mps 679 mmHg 66%
    01:00 +17°C° 0 mm 2 mps 679 mmHg 71%
    02:00 +16°C° 0 mm 2 mps 678 mmHg 72%
    03:00 +16°C° 0 mm 2 mps 678 mmHg 74%
    04:00 +15°C° 0 mm 2 mps 678 mmHg 76%
    05:00 +16°C° 0 mm 2 mps 679 mmHg 72%
    06:00 +17°C° 0 mm 2 mps 679 mmHg 68%
    07:00 +17°C° 0 mm 2 mps 679 mmHg 64%
    08:00 +20°C° 0 mm 1 mps 680 mmHg 55%
    09:00 +22°C° 0 mm 1 mps 680 mmHg 46%
    10:00 +23°C° 0 mm 1 mps 680 mmHg 37%
    11:00 +25°C° 0 mm 2 mps 680 mmHg 34%
    12:00 +26°C° 0 mm 3 mps 680 mmHg 31%
    13:00 +27°C° 0 mm 5 mps 679 mmHg 29%
    14:00 +27°C° 0 mm 5 mps 679 mmHg 28%
    15:00 +27°C° 0 mm 6 mps 678 mmHg 27%
    16:00 +27°C° 0 mm 7 mps 678 mmHg 26%
    17:00 +26°C° 0 mm 5 mps 677 mmHg 31%
    18:00 +24°C° 0 mm 3 mps 677 mmHg 36%
    19:00 +23°C° 0 mm 2 mps 677 mmHg 41%
    20:00 +21°C° 0 mm 2 mps 677 mmHg 44%
    21:00 +21°C° 0 mm 1 mps 677 mmHg 48%
    22:00 +21°C° 0 mm 1 mps 677 mmHg 51%
    23:00 +20°C° 0 mm 1 mps 677 mmHg 54%

    29 March, Friday

    Time Temperature Precipitation Wind Pressure Humidity
    00:00 +19°C° 0 mm 2 mps 676 mmHg 56%
    01:00 +18°C° 0 mm 2 mps 676 mmHg 59%
    02:00 +18°C° 0.1 mm 2 mps 676 mmHg 60%
    03:00 +17°C° 0.1 mm 2 mps 676 mmHg 62%
    04:00 +17°C° 0.1 mm 2 mps 676 mmHg 64%
    05:00 +17°C° 0.2 mm 3 mps 676 mmHg 63%
    06:00 +17°C° 0.2 mm 4 mps 677 mmHg 62%
    07:00 +16°C° 0.2 mm 5 mps 677 mmHg 61%
    08:00 +17°C° 0.7 mm 4 mps 678 mmHg 56%
    09:00 +18°C° 0.7 mm 4 mps 678 mmHg 50%
    10:00 +19°C° 0.7 mm 3 mps 679 mmHg 44%
    11:00 +16°C° 0.7 mm 5 mps 679 mmHg 52%
    12:00 +15°C° 0.7 mm 6 mps 679 mmHg 60%
    13:00 +13°C° 0.7 mm 8 mps 679 mmHg 68%
    14:00 +12°C° 0.2 mm 7 mps 679 mmHg 67%
    15:00 +12°C° 0.2 mm 7 mps 679 mmHg 66%
    16:00 +11°C° 0.2 mm 6 mps 680 mmHg 64%
    17:00 +12°C° 0 mm 5 mps 680 mmHg 64%
    18:00 +12°C° 0 mm 4 mps 681 mmHg 63%
    19:00 +12°C° 0 mm 3 mps 681 mmHg 63%
    20:00 +12°C° 0 mm 3 mps 682 mmHg 63%
    21:00 +12°C° 0 mm 2 mps 682 mmHg 64%
    22:00 +12°C° 0 mm 2 mps 682 mmHg 64%
    23:00 +12°C° 0 mm 2 mps 682 mmHg 63%

    30 March, Saturday

    Time Temperature Precipitation Wind Pressure Humidity
    00:00 +12°C° 0 mm 2 mps 682 mmHg 62%
    01:00 +12°C° 0 mm 2 mps 681 mmHg 61%
    02:00 +12°C° 0 mm 2 mps 681 mmHg 59%
    03:00 +10°C° 0 mm 2 mps 681 mmHg 58%
    04:00 +10°C° 0 mm 2 mps 681 mmHg 56%
    05:00 +12°C° 0 mm 2 mps 681 mmHg 54%
    06:00 +12°C° 0 mm 2 mps 682 mmHg 52%
    07:00 +13°C° 0 mm 2 mps 682 mmHg 50%
    08:00 +15°C° 0 mm 1 mps 682 mmHg 42%
    09:00 +16°C° 0 mm 1 mps 683 mmHg 33%
    10:00 +19°C° 0 mm 1 mps 683 mmHg 25%
    11:00 +20°C° 0 mm 1 mps 683 mmHg 23%
    12:00 +21°C° 0 mm 1 mps 682 mmHg 22%
    13:00 +22°C° 0 mm 1 mps 682 mmHg 20%
    14:00 +22°C° 0 mm 1 mps 682 mmHg 21%
    15:00 +22°C° 0 mm 1 mps 682 mmHg 21%
    16:00 +23°C° 0 mm 2 mps 681 mmHg 22%
    17:00 +21°C° 0 mm 2 mps 681 mmHg 28%
    18:00 +21°C° 0 mm 1 mps 682 mmHg 33%
    19:00 +20°C° 0 mm 1 mps 682 mmHg 39%
    20:00 +19°C° 0 mm 1 mps 682 mmHg 40%
    21:00 +19°C° 0 mm 1 mps 682 mmHg 41%
    22:00 +18°C° 0 mm 1 mps 682 mmHg 42%
    23:00 +18°C° 0 mm 1 mps 682 mmHg 39%

    31 March, Sunday

    Time Temperature Precipitation Wind Pressure Humidity
    00:00 +16°C° 0 mm 2 mps 682 mmHg 36%
    01:00 +16°C° 0 mm 2 mps 681 mmHg 33%
    02:00 +16°C° 0 mm 2 mps 681 mmHg 32%
    03:00 +15°C° 0 mm 2 mps 681 mmHg 31%
    04:00 +15°C° 0 mm 2 mps 681 mmHg 30%
    05:00 +15°C° 0 mm 2 mps 681 mmHg 32%
    06:00 +16°C° 0 mm 2 mps 682 mmHg 33%
    07:00 +16°C° 0 mm 2 mps 682 mmHg 35%
    08:00 +18°C° 0 mm 2 mps 683 mmHg 31%
    09:00 +20°C° 0 mm 2 mps 683 mmHg 27%
    10:00 +21°C° 0 mm 2 mps 684 mmHg 22%
    11:00 +23°C° 0 mm 2 mps 683 mmHg 22%
    12:00 +24°C° 0 mm 2 mps 683 mmHg 22%
    13:00 +25°C° 0 mm 3 mps 683 mmHg 23%
    14:00 +25°C° 0 mm 3 mps 682 mmHg 25%
    15:00 +24°C° 0 mm 3 mps 682 mmHg 27%
    16:00 +23°C° 0 mm 4 mps 682 mmHg 29%
    17:00 +22°C° 0 mm 4 mps 682 mmHg 34%
    18:00 +21°C° 0 mm 4 mps 682 mmHg 39%
    19:00 +20°C° 0 mm 4 mps 682 mmHg 44%
    20:00 +20°C° 0 mm 3 mps 682 mmHg 46%
    21:00 +19°C° 0 mm 2 mps 682 mmHg 48%
    22:00 +19°C° 0 mm 2 mps 682 mmHg 50%
    23:00 +19°C° 0 mm 2 mps 682 mmHg 49%
    Show more